Regional Weather Roundup
Issued by NWS

Home | Current Version | Previous Version | Graphics & Text | Print | Product List | Glossary On
Versions: 1 2 3 4 5 6 7 8 9 10 11 12 13 14 15 16 17 18 19 20 21 22 23 24 25 26 27 28 29 30 31 32 33 34 35 36 37 38 39 40 41 42 43 44 45 46 47 48 49 50
000
ASUS45 KTFX 060804
RWRMT
MONTANA HOURLY WEATHER ROUNDUP
NATIONAL WEATHER SERVICE GREAT FALLS MT
104 AM MST FRI MAR 6 2015

NOTE: "FAIR" INDICATES FEW OR NO CLOUDS BELOW 12000 FEET WITH NO
SIGNIFICANT WEATHER AND/OR OBSTRUCTIONS TO VISIBILITY.

* THESE STATIONS ARE NOT UNDER NWS QUALITY CONTROL. THEY DO NOT
   REPORT WEATHER SUCH AS PRECIPITATION OR FOG.

MTZ001>007-043-060900-
WEST OF THE DIVIDE
CITY           SKY/WX    TMP DP  RH WIND       PRES   REMARKS
KALISPELL      PTCLDY    25  19  78 W3        30.29F
MISSOULA       CLOUDY    28  19  69 CALM      30.33S
BUTTE          MOCLDY    23  16  74 W3        30.27S
MULLAN PASS    CLEAR     28  14  56 NW5       30.28S WCI  22
* ANACONDA     PTCLDY    36  12  37 SW3        N/A
* ESSEX        N/A       22  16  78 W1         N/A
* LINCOLN      N/A       34  12  40 S5G10      N/A   WCI  29
* LOOKOUT PASS N/A       29  18  63 NE2        N/A
* POLSON       N/A       33  14  45 S2         N/A
* RONAN APT    PTCLDY    32  27  82 N/A        N/A
* SEELEY LAKE  N/A       19  13  77 N/A        N/A
* THOMP F APT  CLEAR     25  11  55 NE4        N/A
* YAAK HILL    N/A       27  17  66 N1         N/A
$$

MTZ008-052>055-060900-
SOUTHWEST MONTANA
CITY           SKY/WX    TMP DP  RH WIND       PRES   REMARKS
BOZEMAN        PTCLDY    23  18  81 S3        30.25S
DILLON         MOCLDY    36  12  37 S17       30.27F WCI  26
* W YELLOWSTON CLEAR     12   8  84 S1         N/A
* THREE FORKS  PTCLDY    28  14  56 N/A        N/A
* BOULDER HILL N/A       32   5  32 SW2        N/A
* MONIDA PASS  N/A       21  10  62 SE12       N/A   WCI   9
* RAYNOLDS PAS N/A       16   5  62 SW8        N/A   WCI   5
* WHITEHALL    N/A       32  11  41 W8G14      N/A   WCI  25
* WISE RIVER   N/A       28  11  49 SW2        N/A
$$

MTZ009>010-012-014-046-048-049-054-060900-
EAST SLOPES AND CENTRAL MONTANA
CITY           SKY/WX    TMP DP  RH WIND       PRES   REMARKS
CUT BANK       PTCLDY    37  18  46 W30G36    30.06F WCI  24
GREAT FALLS    CLEAR     32  16  52 SW12      30.12S WCI  23
HELENA         PTCLDY    45  12  26 W13       30.22R
* DEARBORN     N/A       42  16  35 S8G13      N/A
* EAST GLACIER N/A       34  14  44 W23G29     N/A   WCI  22
* MONARCH      N/A       34   8  33 SW20       N/A   WCI  23
* PENDROY      N/A       39  19  45 NW16G22    N/A   WCI  30
* ROGERS PASS  N/A       34  11  38 SE16G34    N/A   WCI  24
* SWEET GRASS  N/A       36  20  52 W17G22     N/A   WCI  26
$$

MTZ011-013-016-021-035-040-045-047-050-051-060900-
NORTH CENTRAL MONTANA
CITY           SKY/WX    TMP DP  RH WIND       PRES   REMARKS
HAVRE          CLOUDY    34  19  54 SW12      30.07F WCI  25
LEWISTOWN      CLEAR     32  18  56 W6        30.11F WCI  26
* N BAR RANCH  CLEAR     28  14  56 CALM      30.11S
* CHESTER      N/A       33  16  50 S5G12      N/A   WCI  28
* DENTON       N/A       33  18  54 SW12       N/A   WCI  24
* GEYSER       N/A       31  12  45 W9         N/A   WCI  23
* JUDITH GAP   N/A       34  15  46 W16        N/A   WCI  24
* LOMA         N/A       34  17  50 W5         N/A   WCI  29
$$

MTZ017>020-022>027-061-062-060900-
NORTHEAST MONTANA
CITY           SKY/WX    TMP DP  RH WIND       PRES   REMARKS
GLASGOW        PTCLDY    32  19  59 W6        30.05F WCI  26
GLENDIVE       MOCLDY    28  18  66 W10       30.06S WCI  19
JORDAN         CLEAR     27  21  78 W9        30.07F WCI  18
SIDNEY         PTCLDY    27  18  69 W7        30.08R WCI  19
WOLF POINT     PTCLDY    27  21  78 CALM      30.07R
* BEAVER HILL  N/A       31  16  54 SW6        N/A   WCI  25
* CIRCLE       N/A       33  21  61 N/A        N/A
* LINDSAY DVD  N/A       32  17  54 NW6        N/A   WCI  26
* NAVAJO       N/A       23  18  81 NW9        N/A   WCI  13
* SACO         N/A       29  18  63 S8         N/A   WCI  21
$$

MTZ028>042-056>058-060900-
SOUTHCENTRAL AND SOUTHEAST MONTANA
CITY           SKY/WX    TMP DP  RH WIND       PRES   REMARKS
BAKER          MOCLDY    28  16  61 W7        30.06S WCI  21
BILLINGS       PTCLDY    36  14  40 SW14      30.15R WCI  27
LIVINGSTON     PTCLDY    41  12  30 SW26G33   30.18R
MILES CITY     CLEAR     32  16  52 N/A       30.08F
* LAUREL APT   CLEAR     34  12  40 N/A        N/A
* ROUNDUP APT  PTCLDY    36  10  34 N/A        N/A
* ALZADA       N/A       29  20  69 W6         N/A   WCI  23
* HYSHAM       N/A       36  10  34 W4G9       N/A
* LAME DEER    N/A       34  17  50 W8         N/A   WCI  27
* REED POINT   N/A       39  13  34 W8         N/A   WCI  33
$$

REGIONAL REPORTS...DAKOTAS
CITY           SKY/WX    TMP DP  RH WIND       PRES   REMARKS
WILLISTON      PTCLDY    25  16  69 N5        30.04S WCI  19
DICKINSON      CLEAR     25  12  58 W9        30.01R WCI  16
CROSBY         CLEAR     18  14  84 W12       30.04R WCI   5
WATFORD CITY   CLEAR     23  18  81 SW7       30.02S WCI  15
BISMARCK       PTCLDY    19  12  74 NW7       30.03R WCI  10
GRAND FORKS    CLEAR     12   7  80 SW9       29.95F
FARGO          PTCLDY    16   7  67 S13       29.98F WCI   2
BUFFALO SD     CLEAR     27  14  58 W10       30.00S WCI  18
RAPID CITY     PTCLDY    27  16  63 SW3       30.11S
$$

REGIONAL REPORTS...WYOMING/IDAHO/WASHINGTON
CITY           SKY/WX    TMP DP  RH WIND       PRES   REMARKS
GILLETTE       MOCLDY    32  18  56 W12       30.13S WCI  23
SHERIDAN       PTCLDY    27  16  63 S5        30.14S WCI  21
CODY           PTCLDY    39  10  30 W10G28    30.16S WCI  32
YELLOWSTONE LA PTCLDY     7   1  76 CALM      30.34R
SALMON         PTCLDY    25  18  75 CALM      30.37R
MULLAN PASS    CLEAR     28  14  56 NW5       30.28S WCI  22
SAND POINT     CLEAR     27  23  85 CALM      30.35S
SPOKANE        PTCLDY    36  21  54 SE7       30.32S WCI  30

$$



USA.gov is the U.S. government's official web portal to all federal, state and local government web resources and services.